Latest Coastal Weather Observations for Coconut Island

IDQ60701

Issued at 3:25 am EST Friday 31 October 2014 (issued every 10 minutes, with the page automatically refreshed every 10 minutes)

About coastal observations | Map of coastal stations | Coastal observations for QLD | Marine services | Other Formats
Station Details ID: 027054 Name: COCONUT ISLAND Lat: -10.05 Lon: 143.07 Height: 3.5 m
Data from the previous 72 hours. | See also: Recent months at Coconut Island
Date/Time
EST
Temp

°C
Wind Pressure Rain
since 9am
mm
Weather Cloud Vis
km
Sea
Height
m
Swell
Dir
 
Speed
knots
Gust
knots
hPa Trend Height
m
Period
s
Dir
31/03:00am 23.7 SE 4 8 1009.1 - 0.0 - - - - - - -
31/02:30am 23.8 SE 3 7 1009.2 - 0.0 - - - - - - -
31/02:00am 24.0 SE 4 8 1009.4 - 0.0 - - - - - - -
31/01:30am 24.1 ESE 4 9 1009.7 - 0.0 - - - - - - -
31/01:00am 24.2 SE 4 9 1010.1 - 0.0 - - - - - - -
31/12:30am 24.4 SE 3 5 1010.4 - 0.0 - - - - - - -
31/12:00am 24.7 SE 3 7 1010.8 - 0.0 - - - - - - -
 
Date/Time
EST
Temp

°C
Wind Pressure Rain
since 9am
mm
Weather Cloud Vis
km
Sea
Height
m
Swell
Dir
 
Speed
knots
Gust
knots
hPa Trend Height
m
Period
s
Dir
30/11:30pm 24.8 SE 3 7 1010.9 - 0.0 - - - - - - -
30/11:00pm 24.9 SE 4 9 1011.0 - 0.0 - - - - - - -
30/10:30pm 25.3 SE 3 9 1010.9 - 0.0 - - - - - - -
30/10:00pm 25.5 SE 5 11 1011.0 - 0.0 - - - - - - -
30/09:30pm 25.7 SSE 4 6 1010.8 - 0.0 - - - - - - -
30/09:00pm 25.7 SE 4 8 1010.3 - 0.0 - - - - - - -
30/08:30pm 25.7 SE 4 9 1010.0 - 0.0 - - - - - - -
30/08:00pm 25.8 SE 4 8 1010.0 - 0.0 - - - - - - -
30/07:30pm 26.1 SE 4 8 1009.7 - 0.0 - - - - - - -
30/07:00pm 26.3 SE 5 11 1009.4 - 0.0 - - - - - - -
30/06:30pm 26.7 SE 3 6 1009.1 - 0.0 - - - - - - -
30/06:00pm 27.3 SE 4 8 1008.9 - 0.0 - - - - - - -
30/05:30pm 28.1 SE 3 9 1008.6 - 0.0 - - - - - - -
30/05:00pm 28.8 SSE 3 6 1008.4 - 0.0 - - - - - - -
30/04:30pm 29.9 SE 3 7 1008.5 - 0.0 - - - - - - -
30/04:00pm 29.7 SE 4 8 1008.4 - 0.0 - - - - - - -
30/03:30pm 31.2 SE 3 5 1008.5 - 0.0 - - - - - - -
30/03:00pm 30.4 ESE 5 9 1008.8 - 0.0 - - - - - - -
30/02:30pm 30.6 ESE 4 9 1009.0 - 0.0 - - - - - - -
30/02:00pm 30.5 ESE 5 11 1009.5 - 0.0 - - - - - - -
30/01:30pm 30.8 ESE 5 9 1009.8 - 0.0 - - - - - - -
30/01:00pm 31.4 ESE 4 9 1010.2 - 0.0 - - - - - - -
30/12:30pm 31.4 ESE 5 10 1010.8 - 0.0 - - - - - - -
30/12:00pm 32.0 SE 4 10 1011.4 - 0.0 - - - - - - -
30/11:30am 31.9 ESE 5 9 1011.6 - 0.0 - - - - - - -
30/11:00am 30.9 SE 4 9 1011.8 - 0.0 - - - - - - -
30/10:30am 30.9 ESE 5 8 1011.9 - 0.0 - - - - - - -
30/10:00am 30.4 ESE 4 8 1012.0 - 0.0 - - - - - - -
30/09:30am 29.6 SE 3 7 1012.2 - 0.0 - - - - - - -
30/09:00am 28.7 ESE 5 8 1012.2 - 0.0 - - - - - - -
30/08:30am 28.7 SE 3 7 1012.1 - 0.0 - - - - - - -
30/08:00am 26.9 SE 3 5 1011.9 - 0.0 - - - - - - -
30/07:30am 25.7 SE 3 7 1011.6 - 0.0 - - - - - - -
30/07:00am 24.7 SE 4 8 1011.2 - 0.0 - - - - - - -
30/06:30am 24.1 SE 3 7 1010.9 - 0.0 - - - - - - -
30/06:00am 24.0 SE 3 6 1010.6 - 0.0 - - - - - - -
30/05:30am 24.1 ESE 4 9 1010.4 - 0.0 - - - - - - -
30/05:00am 23.9 SE 3 7 1010.0 - 0.0 - - - - - - -
30/04:30am 24.0 SSE 3 5 1009.7 - 0.0 - - - - - - -
30/04:00am 24.0 SSE 3 5 1009.6 - 0.0 - - - - - - -
30/03:30am 24.0 SSE 3 5 1009.5 - 0.0 - - - - - - -
30/03:00am 24.0 SE 2 5 1009.7 - 0.0 - - - - - - -
30/02:30am 24.3 SE 4 7 1009.9 - 0.0 - - - - - - -
30/02:00am 24.3 SE 4 8 1010.0 - 0.0 - - - - - - -
30/01:30am 24.5 ESE 5 8 1010.4 - 0.0 - - - - - - -
30/01:00am 24.7 ESE 6 9 1010.9 - 0.0 - - - - - - -
30/12:30am 24.9 ESE 5 10 1011.3 - 0.0 - - - - - - -
30/12:00am 24.8 ESE 4 8 1011.6 - 0.0 - - - - - - -
 
Date/Time
EST
Temp

°C
Wind Pressure Rain
since 9am
mm
Weather Cloud Vis
km
Sea
Height
m
Swell
Dir
 
Speed
knots
Gust
knots
hPa Trend Height
m
Period
s
Dir
29/11:30pm 25.0 ESE 5 9 1011.8 - 0.0 - - - - - - -
29/11:00pm 25.2 ESE 6 10 1012.0 - 0.0 - - - - - - -
29/10:30pm 25.2 ESE 6 10 1012.3 - 0.0 - - - - - - -
29/10:00pm 25.3 ESE 6 9 1012.2 - 0.0 - - - - - - -
29/09:30pm 25.2 SE 4 8 1012.0 - 0.0 - - - - - - -
29/09:00pm 25.4 SE 4 8 1011.7 - 0.0 - - - - - - -
29/08:30pm 25.7 SE 4 7 1011.8 - 0.0 - - - - - - -
29/08:00pm 26.1 SE 4 10 1011.5 - 0.0 - - - - - - -
29/07:30pm 26.1 SE 3 6 1011.1 - 0.0 - - - - - - -
29/07:00pm 26.5 SE 3 6 1010.8 - 0.0 - - - - - - -
29/06:30pm 26.8 SE 3 6 1010.6 - 0.0 - - - - - - -
29/06:00pm 27.5 SE 3 5 1010.3 - 0.0 - - - - - - -
29/05:30pm 28.3 SE 3 7 1010.1 - 0.0 - - - - - - -
29/05:00pm 29.3 SE 4 9 1009.8 - 0.0 - - - - - - -
29/04:30pm 30.0 SE 4 10 1009.9 - 0.0 - - - - - - -
29/04:00pm 30.4 SE 4 9 1009.7 - 0.0 - - - - - - -
29/03:30pm 30.0 ESE 5 9 1009.7 - 0.0 - - - - - - -
29/03:00pm 29.8 ESE 6 9 1009.9 - 0.0 - - - - - - -
29/02:30pm 30.8 ESE 5 9 1010.1 - 0.0 - - - - - - -
29/02:00pm 29.8 E 6 10 1010.5 - 0.0 - - - - - - -
29/01:30pm 30.8 ESE 6 10 1010.7 - 0.0 - - - - - - -
29/01:00pm 31.1 ESE 5 9 1010.9 - 0.0 - - - - - - -
29/12:30pm 30.9 ESE 6 9 1011.4 - 0.0 - - - - - - -
29/12:00pm 31.3 ESE 6 10 1011.7 - 0.0 - - - - - - -
29/11:30am 30.7 ESE 6 10 1011.9 - 0.0 - - - - - - -
29/11:00am 30.6 ESE 5 10 1012.2 - 0.0 - - - - - - -
29/10:30am 30.7 E 6 11 1012.5 - 0.0 - - - - - - -
29/10:00am 30.7 E 6 12 1012.7 - 0.0 - - - - - - -
29/09:30am 29.7 E 8 13 1012.7 - 0.0 - - - - - - -
29/09:00am 29.2 E 8 14 1012.7 - 0.0 - - - - - - -
29/08:30am 28.5 E 6 11 1012.7 - 0.0 - - - - - - -
29/08:00am 26.9 E 6 9 1012.4 - 0.0 - - - - - - -
29/07:30am 26.0 E 3 6 1012.0 - 0.0 - - - - - - -
29/07:00am 25.4 E 5 8 1011.5 - 0.0 - - - - - - -
29/06:30am 25.1 ESE 5 8 1011.1 - 0.0 - - - - - - -
29/06:00am 24.5 ESE 4 7 1011.1 - 0.0 - - - - - - -
29/05:30am 24.1 SE 2 4 1010.9 - 0.0 - - - - - - -
29/05:00am 24.2 ESE 4 7 1010.5 - 0.0 - - - - - - -
29/04:30am 24.2 SE 3 6 1010.5 - 0.0 - - - - - - -
29/04:00am 24.1 SE 3 7 1010.2 - 0.0 - - - - - - -
29/03:30am 24.4 SE 2 5 1010.2 - 0.0 - - - - - - -
29/03:00am 24.2 SE 3 7 1010.1 - 0.0 - - - - - - -
29/02:30am 24.2 SE 3 6 1010.0 - 0.0 - - - - - - -
29/02:00am 24.4 SE 3 7 1010.2 - 0.0 - - - - - - -
29/01:30am 24.6 SE 4 7 1010.4 - 0.0 - - - - - - -
29/01:00am 24.7 SE 4 9 1010.6 - 0.0 - - - - - - -
29/12:30am 24.8 SE 4 8 1010.8 - 0.0 - - - - - - -
29/12:00am 25.0 SE 4 8 1011.0 - 0.0 - - - - - - -
 
Date/Time
EST
Temp

°C
Wind Pressure Rain
since 9am
mm
Weather Cloud Vis
km
Sea
Height
m
Swell
Dir
 
Speed
knots
Gust
knots
hPa Trend Height
m
Period
s
Dir
28/11:30pm 25.0 SE 3 7 1011.4 - 0.0 - - - - - - -
28/11:00pm 25.2 SSE 4 5 1011.6 - 0.0 - - - - - - -
28/10:30pm 25.4 SSE 3 6 1011.8 - 0.0 - - - - - - -
28/10:00pm 25.4 SSE 4 6 1011.8 - 0.0 - - - - - - -
28/09:30pm 25.5 SSE 4 6 1011.6 - 0.0 - - - - - - -
28/09:00pm 25.7 SSE 4 7 1011.3 - 0.0 - - - - - - -
28/08:30pm 25.7 SE 4 8 1011.2 - 0.0 - - - - - - -
28/08:00pm 25.6 ESE 5 8 1011.1 - 0.0 - - - - - - -
28/07:30pm 25.9 ESE 4 7 1011.1 - 0.0 - - - - - - -
28/07:00pm 26.2 ESE 5 9 1010.8 - 0.0 - - - - - - -
28/06:30pm 26.6 ESE 5 11 1010.5 - 0.0 - - - - - - -
28/06:00pm 26.9 ESE 5 8 1010.4 - 0.0 - - - - - - -
28/05:30pm 27.7 ESE 5 9 1010.2 - 0.0 - - - - - - -
28/05:00pm 28.0 E 5 10 1010.0 - 0.0 - - - - - - -
28/04:30pm 28.7 E 5 10 1010.1 - 0.0 - - - - - - -
28/04:00pm 29.5 ESE 5 8 1010.0 - 0.0 - - - - - - -
28/03:30pm 30.2 ESE 5 9 1010.1 - 0.0 - - - - - - -
28/03:00pm 30.6 ESE 5 8 1010.2 - 0.0 - - - - - - -
28/02:30pm 30.6 ESE 5 8 1010.2 - 0.0 - - - - - - -
28/02:00pm 31.0 ESE 5 8 1010.3 - 0.0 - - - - - - -
28/01:30pm 30.7 ESE 6 10 1010.5 - 0.0 - - - - - - -
28/01:00pm 30.8 ESE 6 10 1010.8 - 0.0 - - - - - - -
28/12:30pm 31.2 E 5 9 1011.2 - 0.0 - - - - - - -
28/12:00pm 30.2 ESE 5 9 1012.0 - 0.0 - - - - - - -
28/11:30am 30.4 ESE 6 10 1012.2 - 0.0 - - - - - - -
28/11:00am 30.4 ESE 6 10 1012.4 - 0.0 - - - - - - -
28/10:30am 30.1 ESE 6 11 1012.6 - 0.0 - - - - - - -
28/10:00am 29.9 ESE 5 10 1012.7 - 0.0 - - - - - - -
28/09:30am 29.6 E 6 10 1012.9 - 0.0 - - - - - - -
28/09:00am 28.8 E 6 9 1012.9 - 0.0 - - - - - - -
28/08:30am 28.4 E 5 8 1012.8 - 0.0 - - - - - - -
28/08:00am 27.2 E 5 9 1012.8 - 0.0 - - - - - - -
28/07:30am 25.9 E 5 9 1012.5 - 0.0 - - - - - - -
28/07:00am 24.9 ESE 5 9 1011.9 - 0.0 - - - - - - -
28/06:30am 24.2 ESE 4 8 1011.6 - 0.0 - - - - - - -
28/06:00am 23.9 ESE 4 7 1011.3 - 0.0 - - - - - - -
28/05:30am 23.8 SE 3 6 1011.0 - 0.0 - - - - - - -
28/05:00am 23.9 ESE 4 7 1010.8 - 0.0 - - - - - - -
28/04:30am 24.1 SE 4 9 1010.6 - 0.0 - - - - - - -
28/04:00am 24.3 ESE 3 6 1010.4 - 0.0 - - - - - - -
28/03:30am 24.3 SE 3 6 1010.6 - 0.0 - - - - - - -

Other Formats:

Comma delimited format used in spreadsheet applications
http://www.bom.gov.au/fwo/IDQ60701/IDQ60701.94182.axf

JavaScript Object Notation format (JSON) in row-major order
http://www.bom.gov.au/fwo/IDQ60701/IDQ60701.94182.json